GFSSGP_850_thetae_276.txt.gz
Theta_e
319 321 322 332 337 338 341 341 343 343 342 338 340 346 347 346 347 350 345 343 335 333 327 331 333 335 336 338 339 340 338 340 330 328 330 332 333 332 333 331 329 327 326 325 325 324 324 324 323
318 321 326 331 337 340 340 338 342 343 340 336 336 339 343 346 345 347 346 343 336 334 324 330 334 335 335 336 335 335 337 330 327 328 330 330 330 329 329 329 327 326 325 324 324 325 325 325 325
317 318 327 333 337 339 340 336 338 336 335 328 333 340 344 346 346 347 347 344 337 336 324 326 332 334 334 331 327 328 328 328 327 328 328 328 329 329 328 327 326 325 326 327 327 326 326 325 326
319 322 325 329 333 337 337 335 332 332 328 326 333 340 343 349 350 349 347 345 338 337 333 324 328 330 328 325 325 326 327 327 327 327 328 328 328 327 327 327 326 327 328 332 337 337 332 328 330
321 324 324 327 327 330 334 332 332 333 330 326 338 339 343 351 346 345 348 346 341 337 338 324 325 326 326 325 326 326 327 327 327 327 328 328 327 327 329 328 327 327 332 338 336 335 336 334 334
321 322 324 324 325 326 328 329 330 330 330 326 332 343 346 351 349 349 348 347 342 338 339 324 324 324 325 326 326 326 326 326 326 327 327 327 326 328 331 327 327 329 339 331 322 322 321 331 333
322 323 322 323 323 324 325 325 326 329 328 327 332 348 351 352 352 351 349 348 343 339 338 326 325 325 325 325 326 326 326 326 327 327 326 326 326 329 333 326 326 339 322 315 314 315 317 318 321
321 323 322 323 323 323 324 323 324 325 327 324 336 348 350 352 352 349 350 349 345 341 338 339 327 325 326 326 326 327 327 327 327 328 327 326 326 330 333 325 333 331 317 317 315 316 323 323 321
320 322 322 323 322 323 323 323 323 323 324 325 332 340 348 352 353 351 351 349 347 341 340 340 339 339 337 339 326 326 327 328 328 328 327 326 328 334 334 331 338 322 319 320 321 321 321 322 324
321 322 322 323 322 322 322 323 323 323 323 325 330 333 344 351 352 352 351 348 346 342 340 340 340 340 339 340 340 326 326 326 327 328 327 328 339 340 339 337 334 320 320 320 321 322 320 321 330
321 322 322 321 320 321 322 322 322 322 324 325 328 326 336 346 352 352 350 348 345 344 344 342 343 343 341 341 342 338 340 338 333 331 333 335 338 335 332 341 330 331 322 335 327 326 326 325 328
321 321 321 321 321 321 322 321 322 322 323 325 324 323 323 340 344 349 349 348 346 345 346 345 344 338 341 342 342 342 341 341 340 340 325 336 329 337 341 341 340 340 336 334 331 328 325 326 326
320 320 320 320 321 319 319 320 321 322 322 323 323 323 325 326 341 348 348 348 349 347 347 347 346 340 335 336 344 344 343 342 341 340 335 337 336 339 341 342 342 343 340 334 332 328 326 327 327
318 318 318 319 319 319 320 320 321 322 322 322 323 324 328 338 345 348 349 349 350 350 349 348 348 347 342 336 343 343 335 342 338 339 339 327 335 338 342 344 345 345 345 337 332 328 326 327 327
319 320 320 321 320 321 320 321 322 321 322 323 324 324 324 334 343 346 347 349 350 351 351 350 349 349 338 335 335 340 345 343 342 340 336 328 324 333 337 344 347 348 349 341 332 331 323 327 327
320 320 321 322 320 320 320 321 323 322 322 322 323 324 323 324 325 330 339 345 348 350 351 351 350 349 339 338 337 340 344 341 339 336 338 328 323 324 326 341 345 348 350 340 334 333 327 327 328
321 321 321 321 320 321 321 321 323 321 322 322 323 324 323 323 324 326 325 324 339 346 347 348 348 348 351 347 342 340 337 334 335 335 335 334 326 324 324 335 343 348 348 342 336 333 328 328 328
321 321 320 320 320 320 321 321 322 321 321 322 323 323 323 325 329 331 333 329 321 333 344 345 344 343 345 345 337 336 337 339 337 337 335 333 328 324 324 332 341 343 347 343 336 335 329 328 329
320 319 320 320 320 319 320 320 321 321 321 322 322 323 327 328 329 331 334 337 333 324 343 344 337 343 342 341 340 337 341 338 337 336 335 335 331 326 324 329 338 334 344 342 338 336 324 328 330
320 320 320 319 319 319 321 321 321 322 322 324 326 327 328 329 330 331 332 332 339 339 333 345 340 340 342 345 345 341 340 344 337 335 336 336 329 326 325 324 337 339 344 345 338 337 329 328 330
320 319 319 319 321 321 321 322 322 323 325 326 327 328 330 331 332 333 334 337 339 340 341 337 346 347 343 344 347 344 338 339 341 337 339 340 331 325 324 325 326 336 342 342 339 339 330 327 330
320 319 319 320 321 321 322 320 323 324 326 328 327 329 331 333 334 335 337 340 341 340 342 339 337 347 347 345 346 345 345 341 339 342 344 341 336 326 326 329 325 335 341 342 341 338 333 321 327
320 320 320 321 322 322 323 322 324 324 325 329 330 331 332 333 335 336 338 341 342 342 344 345 343 347 347 346 343 346 346 345 344 340 341 342 339 334 336 337 333 339 341 343 344 339 338 326 324
320 320 321 322 322 323 323 323 322 324 329 330 331 331 331 332 332 333 335 337 339 341 343 345 348 349 348 347 346 343 346 346 345 345 344 344 343 338 335 336 338 342 343 342 344 336 336 322 324
321 322 324 324 322 322 323 323 324 329 329 330 331 330 330 328 329 331 331 332 334 337 340 341 343 345 349 350 348 345 346 345 346 346 347 347 347 344 343 338 340 343 343 342 341 333 331 323 320
321 323 324 325 325 323 323 322 329 327 328 328 328 327 325 324 328 327 325 325 329 331 333 336 337 340 342 345 347 347 347 347 347 347 347 347 347 346 343 340 339 342 343 340 332 331 331 331 325
320 320 319 323 323 324 324 329 328 327 327 326 327 322 321 321 325 323 320 320 325 328 330 331 330 332 334 337 341 345 346 346 346 345 345 346 344 341 341 341 341 341 339 337 332 332 328 325 322
316 317 321 320 324 327 324 325 326 329 327 324 322 321 320 318 318 318 317 318 321 322 324 325 328 328 328 330 334 337 340 343 345 344 344 343 342 342 342 339 338 338 336 332 331 334 326 325 320
318 317 318 320 322 325 326 327 328 325 323 322 320 317 318 318 318 318 318 317 317 317 318 323 326 328 327 328 328 331 336 336 343 341 342 343 342 342 336 333 330 331 328 331 330 332 328 327 322
316 319 320 322 321 320 321 323 322 318 316 315 315 315 315 315 315 316 316 317 318 318 318 318 324 326 326 325 326 328 330 330 337 341 339 341 341 340 336 334 331 326 327 326 328 329 329 325 325

GFSSGP_850_thetae_279.txt.gz
Theta_e
319 327 328 331 340 339 343 344 343 345 344 340 342 347 347 347 350 353 342 339 333 340 325 329 334 336 336 338 341 342 343 343 336 329 332 332 333 333 332 330 328 326 325 325 324 324 324 324 324
327 326 327 331 337 341 342 341 344 344 341 337 336 342 344 348 347 347 346 340 335 342 325 328 333 335 336 337 339 341 343 343 333 329 332 332 333 332 330 329 327 325 325 324 325 325 325 324 324
320 322 326 333 336 338 342 340 341 339 333 332 338 341 345 348 347 349 350 342 336 342 327 326 330 334 336 337 338 337 340 340 329 329 332 330 330 330 329 328 326 325 326 326 326 327 326 325 325
321 322 324 329 335 337 339 338 337 337 332 331 337 341 345 348 348 351 349 342 339 341 342 325 329 332 334 336 334 333 335 332 329 329 330 328 328 328 328 327 326 326 327 331 337 337 333 328 328
321 323 326 327 328 332 337 337 335 337 335 330 336 341 345 352 350 351 349 345 341 340 343 326 327 329 331 330 328 331 331 328 328 329 328 328 328 328 328 329 326 327 330 338 336 334 335 334 334
323 323 325 326 327 329 331 332 334 335 334 332 332 341 350 352 351 350 349 347 342 340 346 327 327 327 327 325 325 327 328 328 328 328 328 329 329 328 330 329 326 327 338 332 320 320 322 331 334
323 326 325 326 326 327 328 328 331 333 333 332 329 343 353 352 353 351 349 347 343 340 346 327 327 326 325 325 325 326 327 327 328 328 328 329 328 327 331 329 326 332 333 315 314 314 316 318 319
322 325 325 326 325 326 327 326 327 329 331 328 332 342 352 354 353 351 349 347 342 340 344 343 332 326 325 325 326 326 327 327 327 328 328 328 327 327 333 328 326 339 320 317 315 314 318 320 320
322 324 325 325 326 326 326 326 325 326 327 328 329 336 347 354 353 352 350 347 343 340 341 342 342 341 338 334 325 326 326 326 327 328 328 328 330 335 336 332 338 335 319 319 320 319 319 319 326
323 324 324 326 326 325 325 325 325 325 326 328 329 336 344 351 354 353 352 350 345 341 339 340 340 341 340 340 336 326 327 327 327 327 329 328 340 342 344 342 338 326 321 319 319 319 320 327 334
323 324 325 325 324 323 324 325 324 325 325 327 330 331 335 348 352 352 351 351 348 342 339 340 340 340 340 339 345 338 340 338 336 336 342 337 340 342 342 343 342 328 333 339 335 331 329 328 329
323 323 324 324 323 323 324 323 324 324 325 325 328 328 328 340 348 350 349 349 348 345 341 341 341 342 341 340 343 343 340 342 341 342 344 345 341 341 342 342 342 343 341 337 331 331 330 327 328
322 323 323 323 322 323 322 323 323 323 323 323 325 326 327 329 341 346 347 348 348 347 345 343 343 344 344 342 343 344 342 342 342 343 344 344 342 340 341 342 342 343 342 339 335 331 329 328 328
322 322 322 322 321 322 322 322 321 322 323 323 324 325 327 332 334 344 347 347 347 349 348 347 345 346 347 346 344 344 345 343 343 343 342 343 342 340 341 343 344 345 345 342 337 332 329 329 328
320 321 323 322 322 323 322 322 322 323 323 324 324 325 326 331 341 347 348 349 350 351 350 350 349 349 350 349 346 347 346 345 345 343 342 343 338 340 340 342 345 345 346 347 340 332 330 327 329
321 322 322 324 323 322 322 323 324 322 323 324 324 325 326 326 334 338 344 347 350 352 353 353 351 350 353 351 350 348 347 347 346 345 344 343 342 331 338 340 343 344 348 348 341 337 332 328 329
323 322 323 324 324 323 322 323 324 324 324 324 324 324 325 326 328 331 331 329 336 347 352 354 353 352 353 354 352 350 349 348 347 346 345 344 339 338 332 339 339 345 346 346 344 338 335 329 329
323 325 324 324 324 322 323 323 324 324 324 324 324 324 325 326 332 334 336 338 331 331 347 352 353 354 353 355 354 352 351 349 347 347 346 345 343 340 339 338 338 344 345 346 345 339 336 329 331
323 323 324 324 323 322 323 323 324 323 323 324 324 324 324 328 332 333 335 338 342 335 337 348 351 354 354 354 355 353 352 349 349 346 345 344 339 339 339 336 338 340 345 345 345 340 339 332 329
322 322 323 323 323 322 322 322 323 324 324 323 324 325 327 330 332 334 336 339 342 344 340 345 351 353 356 355 354 353 353 349 347 342 341 338 339 337 338 328 337 338 344 346 344 341 340 333 330
322 323 323 323 323 322 322 322 324 324 324 325 327 329 330 332 333 336 338 341 342 344 344 344 345 351 354 354 354 354 352 349 348 348 344 336 337 337 334 327 327 337 338 345 343 344 340 335 330
322 322 322 321 322 323 324 322 324 325 325 327 327 328 330 333 335 337 340 342 343 344 346 347 342 347 351 354 352 352 352 351 348 350 348 345 341 339 339 329 330 326 342 344 344 342 341 339 329
322 323 323 322 322 324 324 324 326 325 327 328 329 332 332 334 335 336 339 340 341 343 346 349 352 348 351 351 352 352 351 350 350 348 347 347 345 344 343 334 326 326 329 336 345 342 342 340 333
322 322 323 323 324 325 325 325 326 327 327 330 332 332 332 332 333 334 335 336 337 339 342 346 348 350 350 350 348 348 350 351 349 349 348 347 347 344 342 338 329 331 330 335 344 342 343 340 333
322 323 325 325 325 325 325 326 325 332 331 332 333 332 331 330 331 330 329 332 334 335 336 338 341 343 346 348 349 347 346 347 348 350 351 349 348 347 347 342 335 337 338 341 343 341 342 339 334
322 323 324 326 326 326 327 325 331 333 332 332 332 329 327 330 329 326 325 329 331 332 332 333 333 334 338 341 345 348 348 346 346 347 347 349 348 348 347 346 342 342 341 341 343 342 341 341 336
321 322 323 325 326 327 328 332 331 331 331 330 330 327 325 325 326 323 322 323 325 326 327 328 332 332 331 333 335 340 343 347 348 348 347 347 348 348 348 346 344 341 341 341 343 341 339 338 339
320 321 324 323 324 325 326 327 331 332 330 330 327 325 324 323 322 322 322 320 320 320 321 325 330 330 330 330 332 333 337 340 342 345 346 346 345 347 348 345 342 341 341 341 341 337 336 338 336
320 321 322 323 325 327 328 328 330 330 327 326 324 322 321 322 321 321 320 320 320 321 321 321 322 324 327 328 329 330 332 335 336 338 341 343 343 342 342 342 341 340 339 338 335 331 331 335 335
321 322 322 326 326 326 325 325 326 326 322 320 320 319 318 317 317 316 316 317 317 317 318 320 321 320 321 325 326 328 329 330 333 333 337 339 342 342 342 339 337 336 334 333 332 331 330 333 332

GFSSGP_850_thetae_285.txt.gz
Theta_e
318 318 328 328 327 330 337 345 343 343 341 340 344 344 343 343 347 339 339 339 336 325 329 332 333 335 337 338 337 336 333 327 328 329 330 331 331 329 328 327 325 325 324 324 323 323 323 324 333
318 318 328 329 324 327 332 339 343 342 336 341 342 343 343 345 344 344 337 340 329 323 326 330 332 334 336 338 339 337 335 328 327 328 330 330 329 328 328 327 325 324 325 326 326 325 325 324 323
317 317 325 319 321 326 330 340 338 337 333 333 344 344 343 342 342 344 340 339 331 323 325 327 330 332 335 337 339 339 337 329 327 328 328 328 327 327 328 328 325 325 326 331 333 332 330 325 324
320 323 324 317 318 321 324 337 337 337 332 333 344 350 343 338 339 339 339 338 332 323 325 327 330 330 331 334 336 337 337 330 327 328 328 327 326 327 329 329 325 326 331 336 327 327 331 330 326
325 323 316 318 318 321 323 336 336 336 335 333 344 348 344 343 344 345 340 335 335 324 326 326 327 328 330 331 331 332 332 328 327 327 327 326 326 327 329 330 325 326 337 326 317 318 324 331 331
323 322 316 316 318 321 322 337 336 334 334 336 352 352 351 350 349 344 337 337 339 325 326 327 329 327 328 328 327 328 328 326 326 327 327 326 326 326 329 331 325 331 328 315 314 313 314 316 323
319 316 317 317 319 320 322 333 330 331 333 329 347 350 351 350 351 343 342 341 341 327 326 327 328 329 329 326 325 325 325 325 326 326 326 326 325 325 328 332 327 334 319 316 315 314 314 315 314
323 316 317 317 319 319 322 326 327 328 329 330 336 349 346 344 345 350 342 343 343 342 327 327 327 327 327 325 324 324 324 325 325 325 326 326 325 324 326 332 331 333 319 317 316 320 329 331 318
322 316 315 317 319 319 324 321 326 326 328 329 338 338 335 339 340 349 345 343 343 343 340 327 327 328 327 324 324 324 324 325 325 326 326 326 325 325 340 336 339 334 327 327 319 327 328 331 333
320 316 318 319 320 320 322 323 325 325 325 327 340 339 337 340 349 350 346 344 342 343 343 332 326 327 327 325 324 325 325 324 324 325 325 326 325 331 340 339 340 337 336 335 330 328 328 327 331
320 317 319 321 323 324 323 323 324 324 323 325 338 341 336 337 343 352 347 343 342 342 345 336 327 327 326 325 324 324 325 325 325 325 325 326 329 337 342 339 343 342 340 337 331 333 330 328 324
318 320 321 322 323 323 322 323 322 323 324 324 332 342 350 351 351 352 349 345 343 342 343 343 328 329 327 325 324 324 324 325 325 325 325 326 332 340 343 341 341 343 343 338 335 333 331 327 324
318 318 322 323 323 323 323 322 322 323 323 324 324 342 347 350 352 352 352 348 343 346 345 342 340 333 328 329 335 335 332 325 325 325 325 326 332 342 344 342 342 344 344 341 335 333 331 329 328
320 320 320 321 322 322 321 321 323 323 323 322 323 323 331 337 334 335 348 349 346 338 341 343 342 341 338 338 340 341 342 334 340 341 339 340 331 343 342 339 341 343 345 344 337 334 334 331 328
320 316 317 319 321 320 322 319 319 322 322 322 322 323 324 325 333 345 348 348 347 342 341 342 341 341 340 339 346 343 344 342 341 342 342 342 341 334 339 336 340 340 345 344 343 342 340 330 326
316 316 316 317 319 320 320 317 320 322 323 323 323 323 324 330 342 346 346 346 348 345 339 336 343 342 341 340 348 347 346 343 344 343 344 343 343 341 335 338 341 342 345 346 345 344 340 332 328
316 315 316 319 320 319 318 317 319 322 323 323 323 324 324 334 334 334 336 343 340 345 349 341 346 342 342 341 341 345 344 346 345 344 344 344 343 342 341 336 340 343 344 347 347 343 340 335 329
315 316 316 319 321 320 318 318 320 323 323 322 324 324 329 336 339 339 336 337 336 337 349 351 347 346 346 346 346 343 345 344 346 346 347 346 344 344 343 340 333 342 343 345 347 346 342 338 331
317 317 318 320 322 321 318 320 320 322 323 324 324 324 334 335 336 339 343 343 334 332 349 352 353 352 352 352 350 351 346 347 347 348 347 347 346 346 346 344 335 337 341 343 344 347 345 341 334
318 318 319 320 321 322 321 321 321 321 322 323 324 324 334 335 337 340 342 342 341 335 345 355 353 352 353 353 354 353 353 351 348 348 348 349 348 347 346 345 339 336 340 340 345 346 347 345 339
321 320 320 321 321 321 320 320 321 322 323 323 327 325 334 335 336 341 343 343 346 346 345 349 352 354 353 354 356 356 354 353 353 352 351 349 348 348 347 345 340 338 338 339 345 344 345 341 337
320 322 322 321 320 319 321 319 319 320 319 319 329 332 334 337 342 343 344 345 346 347 350 346 344 350 354 352 354 354 354 353 353 354 354 352 350 349 347 345 344 338 336 334 336 339 339 339 339
322 321 320 321 320 320 320 318 318 320 321 319 326 330 335 341 341 340 341 341 343 343 347 350 347 346 351 352 350 351 352 353 352 353 352 353 350 348 346 344 343 340 336 339 339 338 342 342 340
323 323 322 320 318 319 320 319 319 319 322 323 326 334 338 338 337 338 338 338 336 337 336 345 347 348 349 349 350 350 352 352 354 352 351 351 350 350 348 347 342 338 338 338 340 339 340 345 341
322 322 323 322 319 320 320 321 324 328 325 325 328 334 335 335 336 336 335 335 334 334 333 333 341 342 342 342 344 343 344 346 347 350 349 350 349 351 350 348 347 347 345 338 337 342 340 343 342
322 319 322 323 323 324 323 328 336 328 323 325 324 331 329 328 332 333 331 329 327 331 331 329 328 327 335 337 338 339 343 343 344 345 346 348 347 348 350 350 348 346 347 342 334 340 343 343 344
323 322 320 320 323 324 323 326 333 328 326 323 322 320 324 325 326 324 328 325 325 330 331 330 327 325 325 322 323 329 333 337 337 341 343 342 344 346 347 348 349 348 347 346 341 336 339 342 343
321 320 323 322 325 325 324 332 333 332 326 325 322 321 319 320 322 323 321 323 322 322 323 322 323 326 326 326 325 325 321 316 317 324 334 339 343 344 344 343 346 349 347 346 343 338 336 336 341
325 325 323 321 326 329 327 332 330 329 326 325 323 321 318 318 318 317 317 317 317 317 317 319 319 319 320 321 321 325 324 322 319 317 317 326 332 338 342 342 343 346 346 346 344 344 345 343 342
324 323 324 325 325 327 326 330 327 326 324 322 321 322 321 319 317 317 316 315 316 316 316 316 316 317 318 319 319 320 320 326 325 321 317 319 323 329 335 341 339 342 343 344 342 341 340 339 338

GFSSGP_850_thetae_291.txt.gz
Theta_e
317 316 316 325 322 323 330 340 342 344 343 344 344 345 344 341 342 335 335 328 328 330 334 332 331 329 327 326 326 326 326 325 325 325 326 327 327 325 324 324 323 323 323 323 325 333 339 338 334
316 316 325 327 320 322 323 330 341 340 341 343 344 343 342 345 341 336 333 327 327 329 332 332 332 330 329 327 326 326 326 326 325 325 326 328 328 325 324 324 324 325 325 324 324 323 323 334 336
315 319 321 316 315 321 322 328 337 340 343 343 343 342 341 340 338 335 334 327 327 328 332 331 332 331 330 329 327 326 326 326 326 325 326 328 329 327 323 324 325 328 330 323 327 325 324 323 330
319 323 318 315 317 317 321 323 330 333 339 342 342 343 341 341 337 337 336 334 328 328 330 331 331 333 331 330 328 325 325 325 325 325 325 327 330 329 324 324 327 334 328 317 320 327 325 324 324
323 321 312 314 314 314 316 319 320 319 328 343 343 343 342 340 341 337 338 338 330 328 330 331 331 333 333 330 328 326 324 325 325 324 324 326 329 331 324 325 331 324 316 314 315 323 327 326 325
321 315 312 313 314 315 315 319 316 318 338 345 345 345 345 340 340 339 339 339 332 326 330 331 333 334 334 332 329 326 324 324 324 324 324 324 328 331 327 329 326 316 314 313 312 316 324 328 329
317 310 313 314 316 316 317 320 327 342 344 346 346 348 348 343 342 339 339 336 331 327 329 330 333 335 336 335 331 328 326 324 324 324 324 324 325 330 329 330 321 316 315 314 314 314 313 317 324
320 310 316 314 315 317 317 320 321 344 345 347 348 345 345 342 344 342 338 332 327 329 330 331 331 335 336 335 334 330 327 325 325 325 325 324 324 326 332 331 323 317 319 325 329 326 319 319 316
320 313 313 316 317 316 319 316 321 328 347 347 347 345 342 343 346 347 342 331 327 329 332 331 329 331 333 334 333 332 329 326 325 325 325 325 324 326 334 332 328 319 326 328 328 328 328 329 330
315 311 315 314 316 317 318 318 320 321 332 340 341 344 344 346 346 345 345 339 328 329 332 332 331 330 330 331 330 329 329 327 325 325 325 325 324 333 338 336 330 327 326 325 327 325 327 326 331
314 314 313 316 318 318 318 318 320 320 320 322 334 346 345 344 346 345 343 340 335 330 330 331 330 329 330 330 328 327 327 326 325 325 325 325 325 330 337 340 336 334 331 330 326 326 326 323 327
316 316 316 317 319 317 316 318 319 320 322 322 324 335 347 348 347 345 342 341 340 339 331 328 329 328 326 327 328 326 325 325 325 325 325 325 325 325 332 340 341 338 334 332 333 333 328 321 324
315 315 317 317 318 317 317 317 317 320 322 322 322 334 346 347 348 347 345 342 343 341 340 336 334 328 328 326 325 324 324 324 324 324 325 325 325 325 333 340 341 342 341 336 334 333 332 331 326
315 315 315 317 318 318 316 317 318 321 322 322 322 322 336 341 344 347 345 343 343 342 342 341 341 338 331 326 326 325 324 323 324 324 324 324 325 325 328 335 340 342 343 343 339 334 331 328 328
316 315 312 315 316 315 316 315 316 320 320 321 321 322 330 338 339 346 349 348 346 343 342 343 342 337 333 335 328 326 325 324 326 332 325 326 326 326 327 336 337 340 342 343 343 337 332 330 329
314 311 312 313 314 317 317 314 315 322 319 320 321 320 321 331 340 343 349 348 347 344 343 343 342 339 336 335 339 332 325 335 341 339 330 338 338 338 332 335 337 338 341 342 344 338 333 333 327
310 313 313 313 314 316 317 315 316 320 319 319 321 319 321 321 329 341 347 348 349 345 343 342 339 338 338 339 340 339 332 339 342 340 337 341 341 342 341 338 337 337 338 342 344 344 341 335 334
315 314 313 313 314 313 313 313 314 319 317 317 318 321 327 330 328 335 340 344 347 344 343 339 339 337 337 339 340 340 339 343 343 343 342 340 341 343 343 343 342 339 337 341 344 343 342 342 342
314 314 313 314 315 315 314 314 316 317 316 315 318 333 341 341 340 341 343 345 347 344 342 341 337 336 337 340 341 340 340 343 344 345 344 343 343 344 343 343 343 342 341 337 342 345 348 345 344
314 314 314 314 314 313 316 316 316 317 318 318 322 335 343 344 347 346 347 348 347 346 344 341 337 339 339 336 340 341 342 344 347 346 347 347 346 346 345 345 344 344 344 341 339 343 345 346 344
316 316 316 316 317 317 317 315 316 316 321 324 332 334 338 340 342 342 345 346 346 344 342 340 340 338 339 338 342 342 343 347 345 342 345 348 348 348 348 347 346 345 344 344 339 338 342 341 343
318 317 317 318 317 317 317 318 315 316 321 324 324 331 339 339 338 339 340 342 343 344 340 348 348 338 344 345 345 343 342 343 344 348 346 347 347 350 349 348 344 345 346 344 343 335 337 338 340
319 319 318 319 317 316 316 315 315 324 325 324 325 336 340 345 345 344 346 346 347 347 350 353 351 350 351 349 347 349 349 348 345 346 348 347 347 349 350 347 345 344 344 344 343 340 336 336 338
318 318 316 314 313 317 316 315 314 326 325 324 324 333 334 338 339 337 337 342 344 345 345 346 347 351 352 352 350 347 345 347 349 348 344 348 347 345 345 347 347 345 343 342 343 342 342 339 337
315 316 318 319 318 319 319 318 325 325 322 322 323 324 330 332 332 331 329 330 335 338 338 340 341 339 340 341 341 340 341 342 341 341 342 342 343 344 347 348 347 347 346 344 344 343 343 342 340
317 317 317 322 322 321 319 325 328 323 321 320 321 320 322 327 330 330 329 327 327 325 327 331 333 330 330 329 329 330 332 332 334 336 336 338 338 341 341 342 344 345 344 344 345 344 344 342 339
317 318 318 319 320 322 320 327 326 325 322 320 320 319 318 317 317 321 321 327 327 325 326 326 324 323 323 322 322 322 322 320 319 320 322 325 330 334 338 339 339 340 341 341 342 343 344 344 343
319 318 320 316 319 321 322 322 327 329 323 320 319 319 318 315 315 315 315 317 319 320 320 320 320 320 320 320 320 319 318 319 320 321 321 319 317 319 323 327 332 336 340 341 341 341 341 341 341
317 320 319 316 320 325 322 322 326 326 324 320 319 317 317 317 317 315 314 314 315 316 316 317 317 317 317 317 317 317 317 317 317 317 319 322 321 319 314 317 323 328 336 341 340 339 341 339 343
318 320 318 315 316 320 320 320 321 324 323 321 320 320 322 319 319 319 319 319 314 316 316 315 315 314 312 310 312 314 314 314 315 316 317 321 322 321 319 312 316 323 327 338 343 341 341 339 340